[[{"header":{"parameterUnit":"m.s-1","parameterCategory":1,"la1":30.2991,"la2":30.254,"lo1":-89.0895,"lo2":-89.0444,"dy":0.0017,"dx":0.0017,"nx":28,"ny":28,"refTime":"2024-10-12T21:00:00:Z","depth":0,"parameterNumber":2,"parameterNumberName":"U-component_of_WINDS"},"data":[0,0,0,0,0,0,0,0,0,0,0,0,0,0,0,0,0,0,0,0,0,0,0,0,0,0,0,0,0,0,0,0,0,0,0,0,0,0,0,0,0,0,0,0,0,0,0,0,0,0,0,0,0,0,0,0,0,0,2.4141,2.4142,0,2.4187,2.4187,2.4188,2.4147,2.4145,2.4144,2.4142,2.4189,2.4191,2.4194,0,0,0,0,0,0,0,0,0,0,0,0,0,2.4016,2.4019,2.4141,2.4142,2.4142,2.4187,2.4187,2.4188,2.4147,2.4145,2.4143,2.4141,2.4188,2.4191,2.4194,0,0,0,0,0,0,0,0,0,0,0,0,0,2.4067,2.402,2.4141,2.4127,2.4127,2.4187,2.4187,2.4188,2.4148,2.4145,2.4143,2.414,2.4187,2.4191,2.4195,2.4271,0,0,2.4208,2.421,0,0,0,0,0,0,0,0,2.4064,2.4072,2.4129,2.4128,2.4128,2.4159,2.416,2.4216,2.4148,2.414,2.4142,2.4139,2.4181,2.4185,2.4199,2.4273,2.4275,2.4208,2.4211,2.4212,2.4214,0,0,0,0,0,0,0,2.4061,2.4069,2.4159,2.413,2.4129,2.4118,2.4122,2.4171,2.4174,2.414,2.4137,2.4143,2.418,2.4195,2.42,2.4276,2.4208,2.4212,2.4214,2.4216,2.4409,2.4412,0,0,0,0,0,0,2.4059,2.4067,2.4158,2.4161,2.4089,2.4122,2.4127,2.4151,2.4173,2.4174,2.4145,2.4141,2.4189,2.4195,2.4202,2.4288,2.4212,2.4216,2.4219,2.4407,2.441,2.4413,0,0,0,0,0,0,2.4056,2.4067,2.4156,2.4113,2.4123,2.4127,2.4154,2.4153,2.4169,2.4177,2.4177,2.4161,2.4188,2.4196,2.4253,2.429,2.4218,2.4222,2.4404,2.4408,2.4411,2.4465,0,0,0,0,0,0,2.4053,2.4067,2.4097,2.4114,2.4126,2.4208,2.4157,2.4156,2.4176,2.4171,2.4191,2.4192,2.4186,2.4247,2.4257,2.4294,2.4225,2.44,2.4405,2.441,2.446,2.447,2.4479,0,0,0,0,0,2.4049,2.4111,2.4098,2.411,2.4163,2.421,2.4216,2.4208,2.4179,2.4208,2.4213,2.4192,2.4284,2.4253,2.4264,2.4303,2.4398,2.4404,2.441,2.4456,2.4468,2.4479,0,0,0,0,0,0,2.4099,2.4113,2.4099,2.4169,2.4188,2.4203,2.4239,2.4223,2.4251,2.4245,2.4233,2.4238,2.4298,2.4307,2.4271,2.4375,2.4336,2.4345,2.4367,2.4379,2.4389,2.4384,2.4229,0,0,0,0,0,2.4118,2.4155,2.4166,2.4226,2.4236,2.4236,2.4256,2.4248,2.4268,2.4276,2.4285,2.4304,2.4337,2.4359,2.439,2.4461,2.4463,2.4493,2.4503,2.4511,2.4517,2.4551,2.4564,2.4432,2.4432,2.4432,0,0,2.4159,2.4171,2.4195,2.4237,2.425,2.4287,2.4244,2.4286,2.4312,2.4282,2.4335,2.4343,2.4363,2.4427,2.4455,2.4436,2.4554,2.4518,2.4524,2.4527,2.4559,2.4571,2.4582,2.4436,2.4435,2.4435,0,0,2.425,2.4265,2.4314,2.4328,2.4349,2.4348,2.436,2.4376,2.4379,2.4433,2.4409,2.4441,2.4499,2.4513,2.4528,2.4621,2.4601,2.4632,2.4681,2.4714,2.4725,2.4734,2.4763,2.4774,2.4639,2.4639,2.4639,0,2.4297,2.4353,2.4342,2.4385,2.4402,2.4375,2.4424,2.4438,2.4469,2.448,2.4459,2.4528,2.4541,2.4605,2.4627,2.4641,2.4652,2.4629,2.4724,2.4733,2.4741,2.4769,2.4781,2.4642,2.4642,2.4642,2.4641,0,2.4407,2.4446,2.4484,2.4511,2.4533,2.4579,2.4574,2.4597,2.4586,2.4587,2.464,2.4653,2.4685,2.47,2.4691,2.4762,2.4748,2.4726,2.4686,2.4757,2.4783,2.4794,2.4647,2.4646,2.4645,2.4644,0,0,2.4533,2.4552,2.4566,2.4576,2.4595,2.4624,2.4668,2.4697,2.4716,2.4737,2.4771,2.4819,2.4797,2.4814,2.4806,2.4836,2.4903,2.4808,2.4809,2.4823,2.4978,2.4993,2.5005,2.4891,2.4893,2.4895,2.4975,0,2.4622,2.4697,2.4687,2.4758,2.479,2.4764,2.4801,2.4816,2.4817,2.4845,2.4846,2.4879,2.4849,2.4858,2.4887,2.4889,2.4934,2.4883,2.492,2.4921,2.4913,2.502,2.5036,2.5112,2.4985,2.4987,2.4988,0,2.4737,2.4759,2.4833,2.4843,2.4856,2.489,2.4914,2.4942,2.4957,2.4956,2.4973,2.4958,2.4999,2.496,2.5015,2.4981,2.4995,2.4998,2.5001,2.5002,2.4957,2.502,2.5136,2.5146,2.5005,2.5004,2.5002,0,2.4816,2.4866,2.4915,2.4925,2.4939,2.4962,2.4969,2.4982,2.4999,2.5021,2.5031,2.5058,2.5071,2.5091,2.5084,2.5056,2.5139,2.51,2.5136,2.5137,2.5154,2.5152,2.527,2.5168,2.5168,2.5168,2.5167,0,2.4916,2.4961,2.495,2.498,2.5028,2.5016,2.5064,2.5068,2.5079,2.5108,2.5088,2.5115,2.5105,2.5131,2.5126,2.5169,2.5177,2.5175,2.5173,2.5175,2.5175,2.5183,2.5176,2.517,2.517,2.5169,2.5169,0,2.5012,2.5007,2.5058,2.5066,2.5069,2.5104,2.511,2.5137,2.5136,2.5173,2.518,2.5178,2.5208,2.5202,2.5236,2.5232,2.5286,2.5279,2.528,2.5277,2.5313,2.5309,2.5438,2.5453,2.5344,2.5345,2.5346,0,2.5075,2.5108,2.5118,2.5135,2.5143,2.5172,2.5188,2.5177,2.5195,2.5212,2.5237,2.5264,2.5285,2.5334,2.5335,2.5359,2.535,2.5394,2.5354,2.5354,2.5347,2.5344,2.5345,2.5401,2.5402,2.5403,2.5404,0,2.5184,2.5179,2.5203,2.5225,2.5245,2.5262,2.5278,2.5293,2.5282,2.5303,2.5332,2.5348,2.5381,2.5407,2.5429,2.5436,2.5417,2.5417,2.5426,2.5428,2.5426,2.5424,2.5298,2.5414,2.5413,2.5412,2.5411,2.5411,2.5264,2.529,2.53,2.5326,2.5336,2.535,2.5374,2.5375,2.5398,2.5423,2.5415,2.5447,2.5458,2.5486,2.5494,2.5519,2.5502,2.5517,2.552,2.5523,2.5525,2.5424,2.5523,2.5523,2.5523,2.5522,2.5522,0,2.5369,2.5373,2.5398,2.5418,2.5438,2.5418,2.5433,2.5451,2.5479,2.5491,2.5511,2.5543,2.5567,2.557,2.5592,2.5611,2.5603,2.5617,2.5614,2.5615,2.554,2.5528,2.5623,2.5623,2.5623,2.5623,2.5623,2.5623,2.5426,2.5469,2.5464,2.551,2.5514,2.5544,2.5554,2.5565,2.5574,2.561,2.5629,2.563,2.5637,2.566,2.5681,2.5681,2.5689,2.5705,2.5702,2.5631,2.5621,2.5611,2.56,2.5708,2.5708,2.5774,2.5774,2.5775]},{"header":{"parameterUnit":"m.s-1","parameterCategory":1,"la1":30.2991,"la2":30.254,"lo1":-89.0895,"lo2":-89.0444,"dy":0.0017,"dx":0.0017,"nx":28,"ny":28,"refTime":"2024-10-12T21:00:00:Z","depth":0,"parameterNumber":3,"parameterNumberName":"V-component_of_WINDS"},"data":[0,0,0,0,0,0,0,0,0,0,0,0,0,0,0,0,0,0,0,0,0,0,0,0,0,0,0,0,0,0,0,0,0,0,0,0,0,0,0,0,0,0,0,0,0,0,0,0,0,0,0,0,0,0,0,0,0,0,0.4498,0.4498,0,0.4519,0.4519,0.4519,0.4506,0.4505,0.4505,0.4504,0.4527,0.4528,0.4529,0,0,0,0,0,0,0,0,0,0,0,0,0,0.4446,0.4448,0.4498,0.4498,0.4499,0.4519,0.4519,0.452,0.4506,0.4505,0.4505,0.4504,0.4526,0.4528,0.4529,0,0,0,0,0,0,0,0,0,0,0,0,0,0.4468,0.4448,0.4498,0.4494,0.4494,0.4519,0.4519,0.452,0.4506,0.4505,0.4504,0.4504,0.4526,0.4527,0.4529,0.4559,0,0,0.4535,0.4535,0,0,0,0,0,0,0,0,0.4467,0.447,0.4495,0.4495,0.4495,0.4509,0.4509,0.4533,0.4507,0.4502,0.4504,0.4503,0.4522,0.4524,0.453,0.456,0.4561,0.4535,0.4536,0.4537,0.4537,0,0,0,0,0,0,0,0.4466,0.4469,0.4506,0.4495,0.4495,0.4492,0.4494,0.4514,0.4517,0.4502,0.4501,0.4504,0.4521,0.4528,0.453,0.4561,0.4535,0.4536,0.4537,0.4538,0.4615,0.4616,0,0,0,0,0,0,0.4464,0.4468,0.4506,0.4507,0.4478,0.4493,0.4496,0.4505,0.4516,0.4517,0.4505,0.4503,0.4525,0.4528,0.4531,0.4565,0.4537,0.4538,0.4539,0.4614,0.4616,0.4617,0,0,0,0,0,0,0.4463,0.4468,0.4505,0.4487,0.4492,0.4495,0.4506,0.4506,0.4513,0.4518,0.4519,0.4511,0.4525,0.4528,0.4552,0.4566,0.4539,0.4541,0.4613,0.4615,0.4616,0.4635,0,0,0,0,0,0,0.4462,0.4468,0.4479,0.4488,0.4493,0.4526,0.4507,0.4507,0.4516,0.4514,0.4524,0.4525,0.4524,0.4549,0.4553,0.4568,0.4542,0.4612,0.4614,0.4616,0.4634,0.4637,0.4641,0,0,0,0,0,0.446,0.4484,0.448,0.4484,0.4507,0.4527,0.4529,0.4528,0.4517,0.4528,0.4532,0.4525,0.4564,0.4552,0.4556,0.4572,0.4611,0.4613,0.4616,0.4632,0.4637,0.4641,0,0,0,0,0,0,0.4478,0.4485,0.4481,0.4508,0.4517,0.4524,0.4539,0.4533,0.4545,0.4543,0.4541,0.4543,0.4567,0.4572,0.4558,0.46,0.4586,0.4589,0.4596,0.4601,0.4604,0.4603,0.4544,0,0,0,0,0,0.4485,0.45,0.4506,0.453,0.4534,0.4536,0.4544,0.4542,0.4551,0.4554,0.4559,0.4568,0.4582,0.4592,0.4605,0.4634,0.4635,0.4647,0.465,0.4653,0.4656,0.467,0.4675,0.4624,0.4624,0.4624,0,0,0.4501,0.4506,0.4516,0.4533,0.454,0.4555,0.4539,0.4556,0.4567,0.4557,0.4579,0.4583,0.4593,0.4618,0.463,0.4623,0.467,0.4656,0.4658,0.466,0.4673,0.4678,0.4682,0.4626,0.4625,0.4625,0,0,0.4536,0.4542,0.4562,0.4568,0.4577,0.4578,0.4583,0.4591,0.4592,0.4614,0.4607,0.462,0.4644,0.4651,0.4658,0.4694,0.4687,0.4698,0.4717,0.4731,0.4735,0.4738,0.475,0.4755,0.4701,0.4701,0.4701,0,0.4554,0.4576,0.4573,0.459,0.4598,0.4588,0.4608,0.4614,0.4628,0.4633,0.4625,0.4654,0.466,0.4687,0.4695,0.4701,0.4706,0.4697,0.4734,0.4738,0.4741,0.4753,0.4757,0.4702,0.4702,0.4702,0.4702,0,0.4597,0.4613,0.4628,0.464,0.4649,0.4668,0.4667,0.4676,0.4673,0.4674,0.4696,0.4702,0.4716,0.4722,0.4719,0.4748,0.4743,0.4735,0.472,0.4747,0.4758,0.4762,0.4704,0.4703,0.4703,0.4703,0,0,0.4646,0.4655,0.466,0.4665,0.4673,0.4685,0.4703,0.4716,0.4724,0.4733,0.4747,0.4767,0.4759,0.4767,0.4764,0.4776,0.4803,0.4766,0.4766,0.4772,0.4834,0.484,0.4845,0.4799,0.4799,0.48,0.4832,0,0.4681,0.4711,0.4708,0.4737,0.475,0.4741,0.4756,0.4763,0.4764,0.4775,0.4777,0.4791,0.4779,0.4784,0.4795,0.4797,0.4815,0.4795,0.4812,0.4812,0.4809,0.4851,0.4857,0.4888,0.4837,0.4837,0.4838,0,0.4727,0.4736,0.4766,0.4771,0.4777,0.479,0.4801,0.4812,0.482,0.4819,0.4827,0.4822,0.4839,0.4824,0.4847,0.4833,0.4839,0.4841,0.4842,0.4844,0.4827,0.4853,0.4898,0.4902,0.4845,0.4844,0.4844,0,0.4758,0.4779,0.4799,0.4803,0.481,0.4819,0.4823,0.4829,0.4836,0.4845,0.485,0.4861,0.4868,0.4876,0.4874,0.4863,0.4897,0.4882,0.4898,0.4898,0.4905,0.4905,0.4952,0.491,0.491,0.491,0.491,0,0.4798,0.4817,0.4813,0.4825,0.4845,0.4841,0.4861,0.4863,0.4868,0.488,0.4872,0.4884,0.4881,0.4892,0.4891,0.491,0.4913,0.4913,0.4912,0.4913,0.4913,0.4918,0.4915,0.4911,0.4911,0.4911,0.491,0,0.4837,0.4835,0.4856,0.486,0.4862,0.4876,0.4879,0.4891,0.4891,0.4906,0.4909,0.491,0.4922,0.4921,0.4936,0.4935,0.4958,0.4955,0.4955,0.4954,0.497,0.4968,0.5021,0.5027,0.4981,0.4982,0.4982,0,0.4863,0.4876,0.4881,0.4888,0.4892,0.4904,0.4911,0.4907,0.4914,0.4922,0.4933,0.4944,0.4954,0.4975,0.4976,0.4987,0.4984,0.5001,0.4986,0.4986,0.4983,0.4982,0.4983,0.5005,0.5005,0.5006,0.5006,0,0.4907,0.4905,0.4916,0.4925,0.4933,0.4941,0.4948,0.4954,0.495,0.4959,0.4972,0.4979,0.4993,0.5005,0.5015,0.5018,0.5011,0.5011,0.5015,0.5016,0.5016,0.5015,0.4963,0.501,0.5009,0.5009,0.5009,0.5009,0.494,0.4951,0.4956,0.4967,0.4971,0.4977,0.4987,0.4988,0.4998,0.5009,0.5006,0.502,0.5025,0.5038,0.5042,0.5052,0.5046,0.5052,0.5053,0.5055,0.5056,0.5014,0.5054,0.5054,0.5054,0.5054,0.5054,0,0.4984,0.4986,0.4996,0.5005,0.5014,0.5006,0.5012,0.502,0.5032,0.5037,0.5046,0.506,0.5071,0.5072,0.5083,0.5091,0.5088,0.5094,0.5093,0.5093,0.5062,0.5057,0.5096,0.5096,0.5096,0.5096,0.5096,0.5096,0.5008,0.5026,0.5024,0.5044,0.5046,0.5059,0.5063,0.5068,0.5072,0.5088,0.5096,0.5097,0.51,0.511,0.512,0.512,0.5124,0.5131,0.5129,0.51,0.5096,0.5092,0.5087,0.5132,0.5132,0.516,0.516,0.516]}]]